TimePST,TemperatureF,Dew PointF,Humidity,Sea Level PressureIn,VisibilityMPH,Wind Direction,Wind SpeedMPH,Gust SpeedMPH,PrecipitationIn,Events,Conditions,WindDirDegrees,DateUTC
12:53 AM,34.0,25.0,70,30.35,8.0,East,3.5,-,N/A,,Clear,90,2011-12-07 08:53:00
1:53 AM,34.0,26.1,73,30.34,8.0,Calm,Calm,-,N/A,,Clear,0,2011-12-07 09:53:00
2:53 AM,33.1,26.1,75,30.33,8.0,Calm,Calm,-,N/A,,Clear,0,2011-12-07 10:53:00
3:53 AM,33.1,25.0,72,30.32,8.0,Calm,Calm,-,N/A,,Clear,0,2011-12-07 11:53:00
4:53 AM,32.0,25.0,75,30.31,7.0,Calm,Calm,-,N/A,,Clear,0,2011-12-07 12:53:00
6:53 AM,32.0,26.1,79,30.31,7.0,Calm,Calm,-,N/A,,Clear,0,2011-12-07 14:53:00
7:53 AM,34.0,27.0,75,30.31,6.0,Calm,Calm,-,N/A,,Haze,0,2011-12-07 15:53:00
8:53 AM,37.9,28.9,70,30.32,6.0,Calm,Calm,-,N/A,,Haze,0,2011-12-07 16:53:00
9:53 AM,45.0,28.0,52,30.31,10.0,Calm,Calm,-,N/A,,Clear,0,2011-12-07 17:53:00
10:53 AM,50.0,30.0,46,30.28,8.0,West,3.5,-,N/A,,Clear,260,2011-12-07 18:53:00
11:53 AM,55.9,30.9,39,30.24,8.0,Calm,Calm,-,N/A,,Clear,0,2011-12-07 19:53:00
12:53 PM,59.0,28.9,32,30.22,8.0,NE,6.9,-,N/A,,Clear,40,2011-12-07 20:53:00
1:53 PM,59.0,28.9,32,30.20,9.0,ENE,6.9,-,N/A,,Clear,70,2011-12-07 21:53:00
2:53 PM,57.9,28.9,33,30.19,9.0,East,8.1,-,N/A,,Clear,80,2011-12-07 22:53:00
3:53 PM,55.9,28.9,36,30.18,9.0,ENE,4.6,-,N/A,,Clear,70,2011-12-07 23:53:00
5:53 PM,46.0,28.9,51,30.17,9.0,East,3.5,-,N/A,,Clear,80,2011-12-08 01:53:00
6:53 PM,46.0,28.9,51,30.17,9.0,NE,3.5,-,N/A,,Clear,50,2011-12-08 02:53:00
7:53 PM,37.9,28.0,68,30.17,9.0,ENE,3.5,-,N/A,,Clear,60,2011-12-08 03:53:00
8:53 PM,41.0,28.0,60,30.16,9.0,Calm,Calm,-,N/A,,Clear,0,2011-12-08 04:53:00
9:53 PM,39.0,27.0,62,30.16,9.0,East,3.5,-,N/A,,Clear,90,2011-12-08 05:53:00
10:53 PM,37.0,28.0,70,30.17,8.0,Calm,Calm,-,N/A,,Clear,0,2011-12-08 06:53:00
11:53 PM,36.0,27.0,70,30.17,8.0,Calm,Calm,-,N/A,,Clear,0,2011-12-08 07:53:00